TimeCST,TemperatureF,Dew PointF,Humidity,Sea Level PressureIn,VisibilityMPH,Wind Direction,Wind SpeedMPH,Gust SpeedMPH,PrecipitationIn,Events,Conditions,WindDirDegrees,DateUTC
12:15 AM,44.6,42.8,93,29.96,10.0,South,4.6,-,N/A,,Scattered Clouds,170,2014-01-02 06:15:00
12:35 AM,46.4,44.6,93,29.96,10.0,South,5.8,-,N/A,,Overcast,190,2014-01-02 06:35:00
12:55 AM,48.2,44.6,87,29.96,10.0,South,6.9,-,N/A,,Overcast,190,2014-01-02 06:55:00
1:15 AM,48.2,44.6,87,29.95,10.0,South,8.1,-,N/A,,Overcast,180,2014-01-02 07:15:00
1:35 AM,48.2,44.6,87,29.94,10.0,South,6.9,-,N/A,,Overcast,180,2014-01-02 07:35:00
1:55 AM,48.2,44.6,87,29.94,10.0,South,5.8,-,N/A,,Overcast,170,2014-01-02 07:55:00
2:15 AM,48.2,44.6,87,29.93,10.0,South,8.1,-,N/A,,Mostly Cloudy,170,2014-01-02 08:15:00
2:35 AM,48.2,46.4,93,29.92,10.0,South,8.1,-,N/A,,Overcast,180,2014-01-02 08:35:00
2:55 AM,50.0,46.4,87,29.93,10.0,SSW,10.4,-,N/A,,Overcast,200,2014-01-02 08:55:00
3:15 AM,48.2,46.4,93,29.93,7.0,SW,10.4,-,N/A,Rain,Rain,230,2014-01-02 09:15:00
3:35 AM,48.2,46.4,93,29.94,2.5,West,4.6,-,N/A,,Overcast,280,2014-01-02 09:35:00
3:55 AM,48.2,46.4,93,29.94,3.0,West,5.8,-,N/A,,Overcast,280,2014-01-02 09:55:00
4:15 AM,48.2,46.4,93,29.94,4.0,WNW,11.5,-,N/A,,Overcast,300,2014-01-02 10:15:00
4:35 AM,46.4,46.4,100,29.95,10.0,WNW,17.3,20.7,N/A,,Overcast,300,2014-01-02 10:35:00
4:55 AM,44.6,42.8,93,29.97,10.0,NW,20.7,26.5,N/A,Rain,Rain,320,2014-01-02 10:55:00
5:15 AM,44.6,41.0,87,29.98,10.0,NNW,23.0,33.4,N/A,,Overcast,330,2014-01-02 11:15:00
5:35 AM,42.8,35.6,76,30.00,10.0,NW,23.0,32.2,N/A,,Overcast,320,2014-01-02 11:35:00
5:55 AM,39.2,33.8,81,30.02,10.0,NW,21.9,31.1,N/A,,Overcast,320,2014-01-02 11:55:00
6:15 AM,37.4,33.8,87,30.04,10.0,NNW,20.7,27.6,N/A,,Overcast,330,2014-01-02 12:15:00
6:35 AM,35.6,32.0,87,30.07,10.0,NNW,21.9,29.9,N/A,,Overcast,330,2014-01-02 12:35:00
6:55 AM,33.8,32.0,93,30.09,10.0,NW,20.7,24.2,N/A,,Mostly Cloudy,320,2014-01-02 12:55:00
7:15 AM,33.8,32.0,93,30.12,10.0,NW,19.6,-,N/A,,Overcast,320,2014-01-02 13:15:00
7:35 AM,33.8,30.2,87,30.13,10.0,NW,23.0,29.9,N/A,,Overcast,320,2014-01-02 13:35:00
7:55 AM,32.0,28.4,87,30.15,10.0,NNW,21.9,28.8,N/A,,Overcast,330,2014-01-02 13:55:00
8:15 AM,32.0,28.4,87,30.17,10.0,NNW,25.3,34.5,N/A,,Mostly Cloudy,330,2014-01-02 14:15:00
8:35 AM,32.0,26.6,80,30.18,10.0,NNW,18.4,31.1,N/A,,Mostly Cloudy,330,2014-01-02 14:35:00
8:55 AM,32.0,26.6,80,30.19,10.0,NNW,16.1,25.3,N/A,,Overcast,340,2014-01-02 14:55:00
9:15 AM,32.0,26.6,80,30.21,10.0,North,24.2,28.8,N/A,,Scattered Clouds,350,2014-01-02 15:15:00
9:35 AM,32.0,24.8,75,30.24,10.0,NNW,21.9,28.8,N/A,,Mostly Cloudy,340,2014-01-02 15:35:00
9:55 AM,32.0,23.0,69,30.25,10.0,NNW,26.5,32.2,N/A,,Mostly Cloudy,340,2014-01-02 15:55:00
10:15 AM,32.0,23.0,69,30.26,10.0,NNW,24.2,29.9,N/A,,Mostly Cloudy,330,2014-01-02 16:15:00
10:35 AM,32.0,23.0,69,30.28,10.0,NNW,25.3,32.2,N/A,,Mostly Cloudy,340,2014-01-02 16:35:00
10:55 AM,32.0,23.0,69,30.28,10.0,NNW,19.6,26.5,N/A,,Scattered Clouds,340,2014-01-02 16:55:00
11:15 AM,32.0,24.8,75,30.27,10.0,NNW,23.0,27.6,N/A,,Scattered Clouds,340,2014-01-02 17:15:00
11:35 AM,32.0,23.0,69,30.27,10.0,NNW,23.0,26.5,N/A,,Scattered Clouds,330,2014-01-02 17:35:00
11:55 AM,33.8,23.0,65,30.27,10.0,NNW,19.6,28.8,N/A,,Scattered Clouds,340,2014-01-02 17:55:00
12:15 PM,33.8,23.0,65,30.27,10.0,North,18.4,27.6,N/A,,Scattered Clouds,350,2014-01-02 18:15:00
12:35 PM,33.8,24.8,70,30.26,10.0,NNW,20.7,26.5,N/A,,Scattered Clouds,330,2014-01-02 18:35:00
12:55 PM,33.8,23.0,65,30.26,10.0,North,17.3,-,N/A,,Scattered Clouds,350,2014-01-02 18:55:00
1:15 PM,33.8,23.0,65,30.28,10.0,NNW,21.9,26.5,N/A,,Scattered Clouds,330,2014-01-02 19:15:00
1:35 PM,33.8,23.0,65,30.28,10.0,North,21.9,26.5,N/A,,Scattered Clouds,350,2014-01-02 19:35:00
1:55 PM,33.8,23.0,65,30.28,10.0,NNW,20.7,-,N/A,,Scattered Clouds,330,2014-01-02 19:55:00
2:15 PM,33.8,21.2,60,30.28,10.0,NNW,18.4,25.3,N/A,,Clear,340,2014-01-02 20:15:00
2:35 PM,33.8,21.2,60,30.29,10.0,NNW,17.3,24.2,N/A,,Scattered Clouds,340,2014-01-02 20:35:00
2:55 PM,33.8,21.2,60,30.29,10.0,NNW,18.4,-,N/A,,Clear,340,2014-01-02 20:55:00
3:15 PM,33.8,21.2,60,30.30,10.0,NNW,15.0,20.7,N/A,,Clear,340,2014-01-02 21:15:00
3:35 PM,33.8,21.2,60,30.31,10.0,NNW,16.1,21.9,N/A,,Clear,330,2014-01-02 21:35:00
3:55 PM,33.8,21.2,60,30.32,10.0,NNW,16.1,-,N/A,,Clear,330,2014-01-02 21:55:00
4:15 PM,33.8,21.2,60,30.32,10.0,NNW,17.3,-,N/A,,Clear,340,2014-01-02 22:15:00
4:35 PM,32.0,21.2,64,30.32,10.0,North,11.5,19.6,N/A,,Clear,350,2014-01-02 22:35:00
4:55 PM,32.0,21.2,64,30.33,10.0,NNW,15.0,-,N/A,,Clear,340,2014-01-02 22:55:00
5:15 PM,32.0,21.2,64,30.34,10.0,NNW,12.7,16.1,N/A,,Clear,340,2014-01-02 23:15:00
5:35 PM,32.0,21.2,64,30.35,10.0,NNW,11.5,-,N/A,,Clear,340,2014-01-02 23:35:00
5:55 PM,30.2,21.2,69,30.36,10.0,NNW,9.2,-,N/A,,Scattered Clouds,340,2014-01-02 23:55:00
6:15 PM,30.2,21.2,69,30.37,10.0,NNW,10.4,-,N/A,,Scattered Clouds,340,2014-01-03 00:15:00
6:35 PM,30.2,21.2,69,30.38,10.0,NNW,10.4,-,N/A,,Clear,340,2014-01-03 00:35:00
6:55 PM,30.2,21.2,69,30.39,10.0,NNW,9.2,-,N/A,,Clear,330,2014-01-03 00:55:00
7:15 PM,30.2,21.2,69,30.41,10.0,NNW,9.2,-,N/A,,Clear,340,2014-01-03 01:15:00
7:35 PM,28.4,21.2,74,30.41,10.0,NNW,8.1,-,N/A,,Clear,340,2014-01-03 01:35:00
7:55 PM,28.4,21.2,74,30.41,10.0,NNW,9.2,-,N/A,,Clear,340,2014-01-03 01:55:00
8:15 PM,30.2,19.4,64,30.42,10.0,NNW,12.7,17.3,N/A,,Clear,340,2014-01-03 02:15:00
8:35 PM,28.4,19.4,69,30.43,10.0,NNW,11.5,-,N/A,,Clear,340,2014-01-03 02:35:00
8:55 PM,28.4,19.4,69,30.44,10.0,NNW,10.4,-,N/A,,Clear,340,2014-01-03 02:55:00
9:15 PM,28.4,19.4,69,30.45,10.0,NNW,9.2,-,N/A,,Clear,340,2014-01-03 03:15:00
9:35 PM,26.6,19.4,74,30.45,10.0,North,9.2,-,N/A,,Clear,350,2014-01-03 03:35:00
9:55 PM,28.4,19.4,69,30.46,10.0,NNW,10.4,-,N/A,,Scattered Clouds,340,2014-01-03 03:55:00
10:15 PM,28.4,19.4,69,30.46,10.0,North,9.2,-,N/A,,Scattered Clouds,350,2014-01-03 04:15:00
10:35 PM,26.6,19.4,74,30.47,10.0,North,8.1,-,N/A,,Clear,360,2014-01-03 04:35:00
10:55 PM,26.6,19.4,74,30.48,10.0,North,6.9,-,N/A,,Clear,360,2014-01-03 04:55:00
11:15 PM,26.6,17.6,69,30.47,10.0,North,11.5,-,N/A,,Clear,360,2014-01-03 05:15:00
11:35 PM,26.6,19.4,74,30.48,10.0,North,9.2,-,N/A,,Clear,350,2014-01-03 05:35:00
11:55 PM,26.6,17.6,69,30.48,10.0,North,12.7,-,N/A,,Clear,350,2014-01-03 05:55:00